Preview of NWS' New Version of Forecast
This preview is not operational and should not be used for support decisions.

Regional Weather Roundup (RWR)

Issued by National Weather Service (NWS)

                            
000
ASUS43 KDTX 181210
RWRMI 
MICHIGAN HOURLY REGIONAL WEATHER ROUNDUP
NATIONAL WEATHER SERVICE DETROIT/PONTIAC MI
800 AM EDT TUE JUN 18 2019

NOTE: "FAIR" INDICATES FEW OR NO CLOUDS BELOW 12,000 FEET WITH NO
SIGNIFICANT WEATHER AND/OR OBSTRUCTION TO VISIBILITY.

MIZ047>049-052>055-059>063-066>070-074>076-081>083-181300-
SOUTHEAST LOWER MICHIGAN
  
CITY           SKY/WX    TMP DP  RH WIND       PRES   REMARKS
ADRIAN         FAIR      63  58  83 N6        29.98S                  
6HR MIN TEMP:  56; 6HR MAX TEMP:  63;                                

ALMA           FAIR      61  60  95 CALM      29.99R                  
6HR MIN TEMP:  52; 6HR MAX TEMP:  61;                                

ANN ARBOR      CLOUDY    60  58  92 CALM      29.97S                  
BAD AXE        FAIR      58  53  84 E5        29.98R                  
6HR MIN TEMP:  44; 6HR MAX TEMP:  58;                                

CARO           FAIR      63  56  80 CALM      29.98R                  
DETROIT CITY   CLOUDY    61  52  72 CALM      29.98R                  
6HR MIN TEMP:  57; 6HR MAX TEMP:  62;                                

DETROIT        CLOUDY    62  53  72 CALM      29.98R                  
6HR MIN TEMP:  58; 6HR MAX TEMP:  63;                                

FLINT          CLOUDY    63  58  83 CALM      29.98R                  
6HR MIN TEMP:  60; 6HR MAX TEMP:  64;                                

GROSSE ILE     CLOUDY    61  54  77 CALM      29.97S                  
6HR MIN TEMP:  55; 6HR MAX TEMP:  61;                                

HILLSDALE      FAIR      61  60  96 CALM      29.98S                  
6HR MIN TEMP:  53; 6HR MAX TEMP:  61;                                

HOWELL         CLOUDY    63  58  82 CALM      29.98S                  
6HR MIN TEMP:  60; 6HR MAX TEMP:  63;                                


CITY           SKY/WX    TMP DP  RH WIND       PRES   REMARKS
JACKSON        CLOUDY    61  61 100 CALM      29.98R FOG              
6HR MIN TEMP:  55; 6HR MAX TEMP:  64;                                

LAMBERTVILLE   FAIR      64  59  86 E3        29.97R                  
6HR MIN TEMP:  57; 6HR MAX TEMP:  64;                                

LANSING        CLOUDY    64  62  93 CALM      29.98R                  
6HR MIN TEMP:  59; 6HR MAX TEMP:  64;                                

LAPEER         FAIR      60  57  88 CALM      29.98S                  
6HR MIN TEMP:  56; 6HR MAX TEMP:  60;                                

MASON          CLOUDY    63  62  96 CALM      29.98S                  
6HR MIN TEMP:  60; 6HR MAX TEMP:  64;                                

MONROE         CLOUDY    61  61  98 CALM      29.96F                  
6HR MIN TEMP:  58; 6HR MAX TEMP:  64;                                

MT. CLEMENS    CLOUDY    60  59  95 CALM      29.97R                  
6HR MIN TEMP:  54; 6HR MAX TEMP:  60;                                

PONTIAC        PTSUNNY   63  55  75 CALM      29.96S                  
6HR MIN TEMP:  59; 6HR MAX TEMP:  63;                                

PORT HOPE        N/A     54  50  86 E3        29.97S                  
6HR MIN TEMP:  47; 6HR MAX TEMP:  54;                                

PORT HURON     CLOUDY    59  50  72 CALM      29.98S                  
TRI CITIES     FAIR      62  59  90 CALM      29.98S                  
6HR MIN TEMP:  55; 6HR MAX TEMP:  62;                                

MIDLAND        FAIR      55  54  94 CALM      29.98S                  
TROY           CLOUDY    62  51  66 CALM      30.00R                  
SAGINAW HB     FAIR      63  61  94 CALM      29.98R                  
$$
MIZ043>046-050>051-056>058-064>065-071>073-077>080-181300-
SOUTHWEST LOWER MICHIGAN
  
CITY           SKY/WX    TMP DP  RH WIND       PRES   REMARKS
BATTLE CREEK   PTSUNNY   64  62  93 CALM      29.98R FOG              
6HR MIN TEMP:  58; 6HR MAX TEMP:  64;                                

BENTON HARBOR  CLOUDY    63  59  87 CALM      29.97S                  
6HR MIN TEMP:  57; 6HR MAX TEMP:  63;                                

BIG RAPIDS     CLOUDY    55  54  94 E3        29.98F                  
6HR MIN TEMP:  51; 6HR MAX TEMP:  57;                                

COLDWATER      FOG       61  61 100 CALM      29.97S VSB 1/2          
FREMONT        CLOUDY    60  55  82 CALM      29.98S                  
6HR MIN TEMP:  53; 6HR MAX TEMP:  60;                                

HOLLAND        CLOUDY    63  58  83 N3        29.98R                  
6HR MIN TEMP:  57; 6HR MAX TEMP:  63;                                

GRAND RAPIDS   PTSUNNY   62  59  90 N3        29.98S                  
6HR MIN TEMP:  56; 6HR MAX TEMP:  62;                                

IONIA          CLOUDY    63  60  90 CALM      29.98S                  
6HR MIN TEMP:  58; 6HR MAX TEMP:  63;                                

KALAMAZOO      CLOUDY    67  62  84 N3        29.98S                  
6HR MIN TEMP:  59; 6HR MAX TEMP:  67;                                

LUDINGTON      FAIR      55  49  82 CALM      29.99R                  
6HR MIN TEMP:  49; 6HR MAX TEMP:  55;                                

MARSHALL       PTSUNNY   63  63 100 CALM      29.98R                  
6HR MIN TEMP:  57; 6HR MAX TEMP:  63;                                

MOUNT PLEASANT FAIR      58  58 100 CALM      29.97F                  
6HR MIN TEMP:  51; 6HR MAX TEMP:  58;                                

MUSKEGON       PTSUNNY   65  54  67 CALM      29.98S                  
6HR MIN TEMP:  61; 6HR MAX TEMP:  65;                                

SOUTH HAVEN    CLOUDY    61  59  93 CALM      29.98S                  
$$
MIZ016>042-181300-
NORTHERN LOWER MICHIGAN
  
CITY           SKY/WX    TMP DP  RH WIND       PRES   REMARKS
ALPENA         FAIR      54  51  90 CALM      29.99R                  
6HR MIN TEMP:  45; 6HR MAX TEMP:  54;                                

BEAVER ISLAND  CLOUDY    55  50  85 CALM      29.97R                  
BELLAIRE       FAIR      56  53  88 CALM      29.98S                  
CADILLAC       FAIR      59  57  95 CALM      29.98S                  
CHARLEVOIX     CLOUDY    56  51  84 CALM      29.99F                  
6HR MIN TEMP:  51; 6HR MAX TEMP:  56;                                

FRANKFORT      PTSUNNY   57  51  78 CALM      29.99R                  
GAYLORD        FAIR      56  54  93 W6        29.98R                  
6HR MIN TEMP:  53; 6HR MAX TEMP:  56; 6HR PCP: TRACE;                

HARBOR SPRINGS CLOUDY    55  54  95 CALM      29.96F                  
HOUGHTON LAKE  FAIR      60  56  86 W5        29.98S                  
6HR MIN TEMP:  49; 6HR MAX TEMP:  60;                                

MANISTEE       FAIR      53  47  79 CALM      29.98S                  
OSCODA         FAIR      51  49  94 CALM      29.98S                  
6HR MIN TEMP:  41; 6HR MAX TEMP:  51;                                

PELLSTON       PTSUNNY   58  52  80 CALM      29.96F                  
6HR MIN TEMP:  49; 6HR MAX TEMP:  58;                                

ROGERS CITY    FAIR      57  52  82 CALM      29.99R                  
TRAVERSE CITY  PTSUNNY   58  52  80 CALM      29.97R                  
6HR MIN TEMP:  52; 6HR MAX TEMP:  58;                                

$$
MIZ007>008-015-181300-
EASTERN UPPER MICHIGAN
  
CITY           SKY/WX    TMP DP  RH WIND       PRES   REMARKS
KINROSS        PTSUNNY   56  50  80 E6        29.96F                  
6HR MIN TEMP:  53; 6HR MAX TEMP:  58; 6HR PCP: TRACE;                

MACKINAC ISLAN PTSUNNY   56  53  89 NE3       29.96F                  
6HR MIN TEMP:  53; 6HR MAX TEMP:  57;                                

NEWBERRY       FAIR      56  53  92 N6        29.96R                  
6HR MIN TEMP:  54; 6HR MAX TEMP:  57;                                

S. S. MARIE    FAIR      57  51  80 CALM      29.96F                  
6HR MIN TEMP:  53; 6HR MAX TEMP:  57;                                

MUNISING         N/A     54  49  83 CALM      29.94F                  
6HR MIN TEMP:  52; 6HR MAX TEMP:  58; 6HR PCP:  0.02;                

$$
MIZ004>006-011>014-085-181300-
CENTRAL UPPER MICHIGAN
  
CITY           SKY/WX    TMP DP  RH WIND       PRES   REMARKS
MANISTIQUE     PTSUNNY   56  53  89 S5        29.95R                  
6HR MIN TEMP:  52; 6HR MAX TEMP:  57;                                

ESCANABA       LGT RAIN  58  55  90 SW3       29.96S                  
6HR MIN TEMP:  54; 6HR MAX TEMP:  58; 6HR PCP:  0.03;                

MENOMINEE      LGT RAIN  58  57  97 CALM      29.96F                  
6HR MIN TEMP:  57; 6HR MAX TEMP:  60; 6HR PCP:  0.07;                

SAWYER-GWINN   PTSUNNY   55  52  88 S6        29.95S                  
$$
MIZ001>003-009>011-084-181300-
WESTERN UPPER MICHIGAN
  
CITY           SKY/WX    TMP DP  RH WIND       PRES   REMARKS
IRON MOUNTAIN  CLOUDY    58  55  90 SE3       29.94F                  
6HR MIN TEMP:  55; 6HR MAX TEMP:  62; 6HR PCP: TRACE;                

HOUGHTON       PTSUNNY   50  43  77 CALM      29.94S                  
6HR MIN TEMP:  47; 6HR MAX TEMP:  52;                                

COPPER HARBOR    N/A     43  42  97 CALM      29.95R                  
6HR MIN TEMP:  43; 6HR MAX TEMP:  48;                                

IRONWOOD       FAIR      52  50  93 CALM      29.96S                  
6HR MIN TEMP:  46; 6HR MAX TEMP:  52;                                

$$

ABBREVIATIONS USED IN REMARKS
   TC - TEMPERATURE IN CELSIUS
  WCI - WIND CHILL INDEX
   HX - HEAT INDEX
  VSB - VISIBILITY